When you browse on this site, cookies collect data to enhance your experience and personalize the content and advertising you see.
Visit our Privacy Policy to learn more. By continuing to use the site, you agree to this use of cookies and data.
  • In Romania
  • List of Countries
  • For 7 days
  • Water Temperature
  • Satellite Maps
  • Weather Map
  • Weather Widgets
  • user-avatar
    Login

    Hourly Weather Georgetown

    Today, 13 December, Thursday

    Time Temperature Precipitation Wind Pressure Humidity
    00:00 +26°C° 0.1 mm 3 mps 760 mmHg 93%
    01:00 +26°C° 0.1 mm 3 mps 760 mmHg 93%
    02:00 +26°C° 0.1 mm 3 mps 759 mmHg 93%
    03:00 +25°C° 0.2 mm 3 mps 759 mmHg 94%
    04:00 +25°C° 0.2 mm 3 mps 760 mmHg 94%
    05:00 +25°C° 0.2 mm 3 mps 760 mmHg 94%
    06:00 +26°C° 0.2 mm 3 mps 760 mmHg 92%
    07:00 +27°C° 0.2 mm 3 mps 760 mmHg 90%
    08:00 +28°C° 0.2 mm 4 mps 761 mmHg 88%
    09:00 +29°C° 0.5 mm 4 mps 761 mmHg 83%
    10:00 +29°C° 0.5 mm 4 mps 761 mmHg 79%
    11:00 +30°C° 0.5 mm 5 mps 761 mmHg 74%
    12:00 +30°C° 0.5 mm 5 mps 761 mmHg 73%
    13:00 +32°C° 0.5 mm 5 mps 760 mmHg 71%
    14:00 +32°C° 0.5 mm 5 mps 760 mmHg 69%
    15:00 +30°C° 0 mm 4 mps 759 mmHg 70%
    16:00 +29°C° 0 mm 4 mps 759 mmHg 72%
    17:00 +29°C° 0 mm 4 mps 759 mmHg 74%
    18:00 +28°C° 0 mm 4 mps 759 mmHg 79%
    19:00 +27°C° 0 mm 4 mps 760 mmHg 84%
    20:00 +26°C° 0 mm 4 mps 760 mmHg 88%
    21:00 +26°C° 0.1 mm 4 mps 760 mmHg 89%
    22:00 +25°C° 0.1 mm 4 mps 761 mmHg 90%
    23:00 +25°C° 0.1 mm 4 mps 761 mmHg 92%

    Tomorrow, 14 December, Friday

    Time Temperature Precipitation Wind Pressure Humidity
    00:00 +25°C° 0.1 mm 4 mps 760 mmHg 92%
    01:00 +25°C° 0.1 mm 4 mps 760 mmHg 92%
    02:00 +25°C° 0.1 mm 4 mps 760 mmHg 92%
    03:00 +25°C° 0.1 mm 4 mps 760 mmHg 92%
    04:00 +25°C° 0.1 mm 3 mps 760 mmHg 92%
    05:00 +25°C° 0.1 mm 3 mps 760 mmHg 92%
    06:00 +26°C° 0.1 mm 4 mps 760 mmHg 90%
    07:00 +27°C° 0.1 mm 4 mps 761 mmHg 87%
    08:00 +28°C° 0.1 mm 4 mps 761 mmHg 84%
    09:00 +29°C° 0.1 mm 5 mps 761 mmHg 76%
    10:00 +32°C° 0.1 mm 5 mps 762 mmHg 67%
    11:00 +33°C° 0.1 mm 5 mps 762 mmHg 59%
    12:00 +33°C° 0.2 mm 5 mps 761 mmHg 60%
    13:00 +33°C° 0.2 mm 5 mps 760 mmHg 61%
    14:00 +32°C° 0.2 mm 5 mps 760 mmHg 62%
    15:00 +30°C° 0.2 mm 5 mps 760 mmHg 66%
    16:00 +30°C° 0.2 mm 5 mps 759 mmHg 70%
    17:00 +29°C° 0.2 mm 4 mps 759 mmHg 75%
    18:00 +28°C° 0 mm 4 mps 760 mmHg 78%
    19:00 +27°C° 0 mm 4 mps 760 mmHg 81%
    20:00 +26°C° 0 mm 5 mps 761 mmHg 84%
    21:00 +26°C° 0 mm 4 mps 761 mmHg 85%
    22:00 +26°C° 0 mm 4 mps 761 mmHg 86%
    23:00 +26°C° 0 mm 4 mps 761 mmHg 87%

    Day after tomorrow, 15 December, Saturday

    Time Temperature Precipitation Wind Pressure Humidity
    00:00 +26°C° 0.1 mm 4 mps 761 mmHg 88%
    01:00 +25°C° 0.1 mm 4 mps 761 mmHg 90%
    02:00 +25°C° 0.1 mm 4 mps 760 mmHg 92%
    03:00 +25°C° 0.1 mm 3 mps 760 mmHg 92%
    04:00 +25°C° 0.1 mm 3 mps 760 mmHg 93%
    05:00 +25°C° 0.1 mm 3 mps 760 mmHg 94%
    06:00 +26°C° 0.1 mm 3 mps 761 mmHg 92%
    07:00 +26°C° 0.1 mm 3 mps 761 mmHg 89%
    08:00 +27°C° 0.1 mm 4 mps 762 mmHg 87%
    09:00 +29°C° 0.1 mm 4 mps 762 mmHg 78%
    10:00 +30°C° 0.1 mm 4 mps 762 mmHg 69%
    11:00 +32°C° 0.1 mm 4 mps 762 mmHg 59%
    12:00 +32°C° 0.1 mm 4 mps 762 mmHg 60%
    13:00 +32°C° 0.1 mm 4 mps 761 mmHg 60%
    14:00 +32°C° 0.1 mm 4 mps 760 mmHg 60%
    15:00 +30°C° 0 mm 4 mps 760 mmHg 64%
    16:00 +29°C° 0 mm 4 mps 760 mmHg 68%
    17:00 +28°C° 0 mm 4 mps 760 mmHg 72%
    18:00 +27°C° 0 mm 3 mps 760 mmHg 77%
    19:00 +26°C° 0 mm 3 mps 761 mmHg 82%
    20:00 +25°C° 0 mm 3 mps 761 mmHg 87%
    21:00 +25°C° 0 mm 3 mps 761 mmHg 89%
    22:00 +25°C° 0 mm 3 mps 761 mmHg 90%
    23:00 +25°C° 0 mm 3 mps 761 mmHg 92%

    16 December, Sunday

    Time Temperature Precipitation Wind Pressure Humidity
    00:00 +24°C° 0 mm 3 mps 761 mmHg 92%
    01:00 +24°C° 0 mm 3 mps 761 mmHg 93%
    02:00 +24°C° 0 mm 3 mps 760 mmHg 94%
    03:00 +24°C° 0.1 mm 2 mps 760 mmHg 94%
    04:00 +24°C° 0.1 mm 2 mps 760 mmHg 94%
    05:00 +24°C° 0.1 mm 2 mps 760 mmHg 95%
    06:00 +25°C° 0.1 mm 2 mps 761 mmHg 91%
    07:00 +26°C° 0.1 mm 2 mps 762 mmHg 87%
    08:00 +27°C° 0.1 mm 2 mps 762 mmHg 83%
    09:00 +29°C° 0.1 mm 2 mps 762 mmHg 77%
    10:00 +30°C° 0.1 mm 2 mps 762 mmHg 71%
    11:00 +31°C° 0.1 mm 3 mps 762 mmHg 65%
    12:00 +31°C° 0.2 mm 3 mps 761 mmHg 63%
    13:00 +31°C° 0.2 mm 3 mps 761 mmHg 62%
    14:00 +33°C° 0.2 mm 3 mps 760 mmHg 60%
    15:00 +32°C° 0.1 mm 4 mps 760 mmHg 65%
    16:00 +30°C° 0.1 mm 4 mps 759 mmHg 70%
    17:00 +29°C° 0.1 mm 4 mps 759 mmHg 74%
    18:00 +28°C° 0.1 mm 4 mps 760 mmHg 79%
    19:00 +27°C° 0.1 mm 4 mps 760 mmHg 84%
    20:00 +26°C° 0.1 mm 4 mps 760 mmHg 89%
    21:00 +26°C° 0.1 mm 4 mps 760 mmHg 90%
    22:00 +25°C° 0.1 mm 3 mps 760 mmHg 92%
    23:00 +25°C° 0.1 mm 3 mps 761 mmHg 93%

    17 December, Monday

    Time Temperature Precipitation Wind Pressure Humidity
    00:00 +25°C° 0.1 mm 3 mps 760 mmHg 93%
    01:00 +25°C° 0.1 mm 3 mps 760 mmHg 94%
    02:00 +25°C° 0.1 mm 3 mps 759 mmHg 95%
    03:00 +25°C° 0 mm 3 mps 760 mmHg 94%
    04:00 +25°C° 0 mm 2 mps 760 mmHg 94%
    05:00 +24°C° 0 mm 2 mps 760 mmHg 94%
    06:00 +26°C° 0.1 mm 2 mps 760 mmHg 89%
    07:00 +27°C° 0.1 mm 3 mps 761 mmHg 85%
    08:00 +28°C° 0.1 mm 3 mps 762 mmHg 80%
    09:00 +29°C° 0.2 mm 3 mps 761 mmHg 75%
    10:00 +30°C° 0.2 mm 3 mps 761 mmHg 70%
    11:00 +32°C° 0.2 mm 4 mps 761 mmHg 65%
    12:00 +32°C° 0.1 mm 4 mps 761 mmHg 63%
    13:00 +33°C° 0.1 mm 4 mps 760 mmHg 61%
    14:00 +33°C° 0.1 mm 4 mps 759 mmHg 59%
    15:00 +32°C° 0 mm 4 mps 759 mmHg 64%
    16:00 +30°C° 0 mm 4 mps 758 mmHg 68%
    17:00 +29°C° 0 mm 4 mps 758 mmHg 73%
    18:00 +28°C° 0 mm 4 mps 759 mmHg 78%
    19:00 +27°C° 0 mm 4 mps 759 mmHg 83%
    20:00 +25°C° 0 mm 3 mps 760 mmHg 89%
    21:00 +25°C° 0 mm 3 mps 760 mmHg 90%
    22:00 +25°C° 0 mm 3 mps 760 mmHg 91%
    23:00 +25°C° 0 mm 3 mps 760 mmHg 92%

    18 December, Tuesday

    Time Temperature Precipitation Wind Pressure Humidity
    00:00 +25°C° 0.1 mm 3 mps 760 mmHg 93%
    01:00 +25°C° 0.1 mm 3 mps 759 mmHg 94%
    02:00 +24°C° 0.1 mm 2 mps 759 mmHg 95%
    03:00 +24°C° 0.1 mm 2 mps 759 mmHg 96%
    04:00 +24°C° 0.1 mm 2 mps 759 mmHg 96%
    05:00 +24°C° 0.1 mm 2 mps 759 mmHg 96%
    06:00 +26°C° 0.1 mm 2 mps 760 mmHg 91%
    07:00 +27°C° 0.1 mm 2 mps 760 mmHg 86%
    08:00 +28°C° 0.1 mm 2 mps 761 mmHg 80%
    09:00 +29°C° 0.6 mm 2 mps 761 mmHg 81%
    10:00 +29°C° 0.6 mm 3 mps 761 mmHg 82%
    11:00 +29°C° 0.6 mm 3 mps 760 mmHg 84%
    12:00 +29°C° 0.8 mm 3 mps 760 mmHg 84%
    13:00 +29°C° 0.8 mm 3 mps 759 mmHg 84%
    14:00 +29°C° 0.8 mm 4 mps 758 mmHg 84%
    15:00 +29°C° 0.4 mm 4 mps 758 mmHg 86%
    16:00 +28°C° 0.4 mm 4 mps 758 mmHg 87%
    17:00 +28°C° 0.4 mm 4 mps 758 mmHg 89%
    18:00 +27°C° 0.2 mm 4 mps 758 mmHg 91%
    19:00 +26°C° 0.2 mm 4 mps 759 mmHg 93%
    20:00 +26°C° 0.2 mm 4 mps 759 mmHg 95%
    21:00 +26°C° 0.3 mm 3 mps 759 mmHg 95%
    22:00 +26°C° 0.3 mm 3 mps 760 mmHg 96%
    23:00 +25°C° 0.3 mm 3 mps 760 mmHg 96%
    Show more